Wetbulb
52.39 52.32 52.05 52.06 52.23 52.48 52.90 52.66 52.55 52.83 52.96 53.27 53.11 53.09 53.44 53.83 54.05 54.30 54.33 54.14 54.57 54.74 55.12 55.84 57.08 56.85 47.99 38.11 37.87 44.71 56.67 52.10 44.81 43.47 41.53 40.81 38.50 37.45 34.39 35.77 37.30 35.08 37.03 39.37 39.62 39.97 39.28
52.11 52.04 51.90 51.76 51.95 52.26 52.54 52.32 52.30 52.48 52.86 52.92 53.02 52.57 52.88 53.09 53.26 53.53 54.10 53.83 53.81 54.43 55.14 55.64 56.19 56.12 41.28 34.67 43.77 43.99 43.53 43.84 43.20 40.70 41.46 40.30 39.16 41.09 37.93 36.77 34.71 37.98 38.30 38.19 38.29 38.44 38.02
51.95 51.67 51.60 51.34 51.59 51.76 51.94 51.65 51.98 52.23 52.44 52.58 52.44 52.59 52.02 52.29 52.55 52.88 53.52 53.43 52.90 53.24 54.31 55.81 56.55 49.80 39.82 37.97 43.66 41.70 43.96 42.10 41.63 41.32 40.25 42.28 42.49 40.59 39.44 37.21 40.23 40.21 35.41 36.60 36.67 36.76 35.73
51.46 51.46 51.33 51.09 51.02 51.25 51.44 51.37 51.41 51.77 52.04 52.27 51.96 52.58 52.42 52.04 52.36 52.46 52.65 52.65 52.85 53.29 54.27 55.01 55.34 45.95 37.10 45.18 43.63 43.61 41.53 43.89 44.92 43.65 42.74 43.41 44.58 41.49 38.99 40.22 39.32 35.93 32.82 27.91 34.58 36.45 35.99
51.18 51.07 50.92 50.75 50.64 50.95 51.10 51.04 51.02 51.31 51.58 51.77 51.92 52.59 52.48 52.16 51.94 52.07 52.07 52.54 53.04 54.23 54.65 53.98 44.92 42.16 36.23 48.72 42.61 43.22 41.34 42.02 42.89 43.72 42.79 46.75 43.00 39.37 38.89 31.40 28.51 29.21 24.39 27.63 30.18 34.40 32.60
50.73 50.75 50.69 50.52 50.36 50.59 51.04 50.95 50.64 50.83 51.13 51.54 52.11 52.48 52.38 52.40 52.22 51.61 51.17 52.38 51.80 51.13 49.92 49.28 46.29 37.85 40.57 39.81 42.21 42.50 43.57 43.93 40.92 41.17 39.27 38.84 35.33 31.25 29.63 27.58 21.61 25.17 25.20 23.98 24.63 29.86 30.80
50.34 50.36 50.32 50.07 50.15 50.38 50.80 50.87 50.24 50.27 50.63 51.02 51.48 52.22 52.34 52.03 52.26 51.55 46.67 46.16 42.16 40.03 40.30 37.19 38.12 38.88 40.25 42.70 43.09 41.39 42.17 41.92 40.44 37.08 30.82 34.16 29.62 26.14 29.06 30.09 30.41 29.29 27.04 25.10 26.18 31.90 29.74
49.74 49.89 50.00 49.85 49.91 50.15 50.44 50.45 49.96 50.01 50.42 50.69 51.21 51.95 51.97 51.82 51.89 51.42 46.42 42.32 43.37 44.13 35.43 41.22 41.21 40.80 42.64 41.87 38.12 40.67 41.80 37.09 35.93 30.38 32.76 29.17 26.89 32.57 34.35 32.01 30.74 28.68 25.59 23.44 27.75 31.83 30.33
49.46 49.68 49.63 49.61 49.78 49.74 50.09 50.07 49.92 49.78 50.12 50.36 50.87 51.44 51.64 51.36 51.30 47.66 45.38 45.54 48.86 49.61 36.56 39.71 41.04 40.01 40.61 41.38 37.22 37.98 38.98 36.99 33.49 31.26 30.12 26.19 30.09 34.96 31.91 27.54 26.28 26.33 23.76 24.00 24.61 28.64 27.79
49.30 49.13 49.19 49.37 49.48 49.43 49.55 49.86 49.70 49.74 49.94 50.48 50.89 51.08 50.88 50.63 46.51 44.24 43.89 49.01 49.37 49.44 29.97 35.39 37.51 40.46 41.88 41.02 36.96 41.04 40.38 37.18 33.53 29.58 30.53 28.88 32.42 31.09 28.30 25.36 26.24 21.00 27.62 26.37 25.60 22.77 16.60
48.94 48.86 48.81 48.83 48.79 48.99 49.34 49.33 49.41 49.63 49.75 50.18 50.46 50.68 50.29 50.78 43.05 41.55 44.78 48.34 49.92 47.88 21.61 37.32 37.31 43.36 41.24 37.04 36.61 37.28 41.04 36.60 29.83 29.88 28.72 25.59 27.40 27.11 25.41 24.53 26.93 22.90 27.83 25.82 25.44 22.28 19.62
48.76 48.84 48.73 48.56 48.92 49.41 49.43 49.74 49.76 49.61 50.18 50.31 50.39 50.30 50.10 46.94 43.07 44.49 46.02 48.01 46.05 29.58 20.45 33.43 37.76 36.34 35.34 36.22 36.21 37.08 34.99 37.19 35.38 30.32 30.01 27.69 31.53 29.14 25.96 28.29 27.59 28.55 25.88 25.48 24.99 21.27 13.41
48.47 48.61 48.54 48.35 49.06 49.33 49.06 49.49 49.66 49.81 50.31 50.46 50.43 50.09 48.26 48.33 41.86 46.94 46.34 44.14 27.83 18.69 35.27 30.58 31.85 35.09 33.37 31.02 32.94 33.26 29.89 26.23 22.91 18.61 19.29 24.36 26.16 27.95 29.31 22.61 27.05 23.32 20.59 12.94 11.59 12.84 14.32
48.23 48.30 48.30 48.24 48.68 49.16 49.26 49.28 49.47 49.60 49.88 50.29 50.19 49.32 46.48 48.41 47.72 47.44 43.47 32.84 16.90 30.43 29.37 34.52 33.65 34.75 29.50 30.68 30.71 30.81 27.76 23.49 27.18 23.91 17.53 15.46 14.83 22.95 27.11 23.00 21.53 21.34 21.37 14.31 8.26 11.02 14.75
48.13 48.03 47.90 48.10 48.45 49.08 48.84 49.02 49.18 49.37 49.74 50.05 49.48 45.00 42.81 43.62 45.63 47.42 35.27 19.92 23.02 28.82 32.30 31.35 32.70 28.86 27.96 29.64 28.92 28.28 24.82 24.02 25.69 25.06 17.12 14.45 15.73 25.77 27.20 26.79 26.26 19.47 18.20 23.61 18.65 20.17 15.56
47.73 47.78 47.63 48.35 48.65 48.71 48.65 48.77 48.92 49.29 49.73 50.45 41.08 43.81 40.74 45.80 47.69 39.76 30.62 28.44 29.59 33.87 34.26 33.43 26.21 29.57 23.09 25.15 24.65 25.33 23.92 27.25 25.74 26.74 25.58 21.59 12.99 23.22 24.98 26.50 26.86 23.92 26.19 16.58 20.24 11.39 6.73
47.30 47.62 47.62 47.98 48.56 48.36 48.28 48.56 48.61 49.18 49.54 49.18 44.23 35.92 41.79 46.02 41.74 34.09 23.51 26.93 32.99 35.82 35.53 32.23 28.99 27.35 26.81 24.37 25.44 23.57 23.24 26.78 27.19 25.75 25.34 21.00 17.81 18.34 22.71 14.27 17.53 18.51 17.60 20.74 21.83 17.57 11.69
46.86 47.22 47.70 48.12 48.37 48.19 48.09 48.21 48.47 48.72 49.23 44.88 38.10 30.26 43.29 42.14 31.33 27.27 23.08 32.17 36.88 34.34 35.65 33.53 32.70 30.46 26.89 26.64 24.95 23.94 22.86 25.36 28.95 26.19 19.58 22.43 18.37 13.40 15.65 24.92 27.07 22.76 18.29 21.80 14.32 10.44 15.63
46.42 46.91 47.16 47.65 47.95 48.10 47.73 47.71 47.98 48.60 49.21 40.59 35.83 34.96 42.89 39.84 24.16 21.44 30.79 32.87 34.02 32.66 32.35 31.34 30.80 30.85 29.59 26.02 21.79 25.05 25.69 28.86 28.51 25.68 21.52 22.41 15.43 8.43 13.66 18.15 22.68 16.18 19.55 20.29 20.83 12.46 4.01
45.77 46.50 46.87 47.06 47.35 47.95 47.57 47.46 47.93 48.33 49.13 42.48 35.86 28.21 33.92 34.06 31.89 29.42 28.82 30.01 30.28 34.74 32.52 32.84 30.75 30.53 26.83 24.54 26.21 22.93 23.98 28.95 28.96 27.23 32.05 25.78 17.72 10.78 5.43 14.73 18.29 8.52 17.00 18.36 11.37 7.62 4.26
45.49 46.05 46.56 47.14 47.53 47.54 47.41 47.19 47.52 48.15 48.78 42.88 34.16 28.50 32.01 23.34 27.23 29.48 29.65 30.86 28.45 27.46 32.95 31.92 28.84 27.10 24.69 21.15 22.23 21.57 23.44 25.44 28.16 29.84 25.15 21.25 15.41 18.52 19.96 20.67 19.75 13.43 16.29 16.59 8.50 1.33 2.63
45.02 46.02 46.72 46.90 47.02 47.16 47.37 46.93 47.14 47.83 47.81 38.15 32.40 31.95 33.96 29.04 33.37 29.37 29.04 27.43 28.16 29.00 29.56 27.69 25.02 27.19 25.05 21.33 22.35 18.90 22.60 22.43 22.09 24.01 21.80 21.17 15.95 19.30 18.05 21.29 20.37 16.79 17.97 17.56 17.27 5.92 6.52
44.70 45.35 46.09 46.31 46.54 46.50 47.07 46.91 46.84 47.61 44.84 35.74 36.45 37.42 34.14 30.43 27.31 26.24 25.84 29.08 29.34 29.52 31.64 31.45 27.97 24.50 24.03 25.25 26.85 27.19 26.87 26.77 26.00 22.14 20.10 19.11 17.13 15.96 13.98 18.96 15.89 9.31 14.67 15.02 16.64 15.38 6.49
44.51 44.92 45.42 46.02 46.11 46.38 46.31 46.90 46.60 47.28 45.12 37.77 36.61 36.28 29.95 24.28 26.88 27.58 32.07 32.33 30.75 29.70 26.97 30.70 28.57 24.78 29.04 31.53 29.99 29.06 27.64 27.82 27.23 25.98 23.80 19.50 17.89 17.90 13.90 15.70 -1.81 15.84 22.05 19.69 15.19 19.37 21.30
44.56 44.65 45.06 45.74 45.90 46.11 46.18 46.75 46.46 46.82 47.52 37.40 36.46 35.72 32.84 22.38 27.96 31.06 32.23 30.27 30.22 30.18 28.18 29.11 30.10 31.28 30.65 27.30 21.89 20.55 21.60 21.64 24.15 25.11 22.40 23.44 19.32 13.33 3.72 9.01 14.19 17.51 20.27 16.82 14.84 12.38 21.86
44.92 44.28 44.46 44.96 45.50 45.73 46.06 46.53 46.62 46.37 47.04 38.02 36.59 37.29 34.89 25.94 25.85 33.77 30.46 29.23 23.24 22.27 26.22 29.24 32.65 31.76 28.80 22.83 21.38 7.58 9.50 17.91 17.29 20.42 24.47 24.07 21.85 13.29 12.45 6.37 -0.12 14.16 20.82 23.83 22.89 9.70 23.71
44.95 44.26 44.26 44.64 45.20 45.47 45.85 45.95 46.48 46.18 46.12 39.03 35.89 36.80 33.32 24.72 29.84 30.13 25.71 25.80 27.20 23.93 20.27 25.89 26.92 26.31 25.99 20.71 8.87 10.63 15.75 21.70 14.56 15.49 17.15 17.86 16.73 9.58 11.16 -0.44 7.73 20.76 23.51 25.06 9.03 8.79 22.71
44.83 44.26 44.36 44.40 44.58 45.36 45.43 45.81 45.99 46.15 46.07 39.86 36.02 37.24 32.26 28.46 29.12 34.72 34.29 26.10 26.60 24.42 20.16 24.92 21.84 23.35 20.46 13.57 13.66 14.82 14.95 18.43 16.71 19.77 17.56 15.72 6.97 6.65 12.11 -1.15 -1.13 25.06 24.03 13.27 17.51 23.13 23.33
44.65 44.21 44.00 44.36 44.63 45.17 45.17 45.80 45.80 46.06 45.86 42.47 33.97 38.52 38.32 28.84 30.18 35.74 35.98 34.59 32.81 30.78 24.51 25.57 22.90 22.76 21.34 13.26 11.90 12.11 14.35 16.80 17.16 11.97 22.28 13.56 18.17 13.48 14.37 12.52 24.58 25.77 23.21 25.60 25.03 23.26 23.85
MSLP
1025.84 1025.45 1025.05 1024.62 1024.14 1023.63 1023.12 1022.66 1022.17 1021.73 1021.28 1020.77 1020.29 1019.82 1019.32 1018.86 1018.34 1017.95 1017.57 1017.30 1017.22 1017.06 1016.82 1016.55 1016.32 1016.00 1015.68 1015.99 1015.90 1014.85 1014.56 1013.98 1013.44 1013.25 1013.11 1013.10 1013.04 1013.17 1013.29 1013.06 1012.55 1012.16 1011.81 1011.34 1011.05 1010.81 1010.45
1026.24 1025.83 1025.43 1024.97 1024.49 1024.01 1023.50 1022.98 1022.42 1021.92 1021.43 1020.91 1020.47 1019.99 1019.46 1018.94 1018.45 1017.97 1017.61 1017.36 1017.13 1016.90 1016.91 1016.76 1016.53 1016.17 1015.98 1016.08 1015.28 1014.95 1014.67 1014.12 1013.69 1013.58 1013.17 1013.00 1013.07 1013.03 1013.11 1013.01 1013.10 1012.32 1012.04 1011.61 1011.55 1011.20 1010.72
1026.50 1026.08 1025.65 1025.21 1024.71 1024.22 1023.72 1023.21 1022.61 1022.09 1021.65 1021.14 1020.61 1020.10 1019.61 1019.16 1018.67 1018.24 1017.86 1017.52 1017.18 1016.85 1016.54 1016.59 1016.51 1016.02 1016.19 1016.34 1015.52 1015.30 1014.74 1014.28 1013.58 1013.45 1013.19 1012.69 1012.72 1012.99 1013.28 1013.33 1012.82 1012.74 1012.64 1012.18 1012.20 1012.04 1011.76
1026.84 1026.39 1025.92 1025.41 1024.86 1024.32 1023.83 1023.35 1022.80 1022.24 1021.72 1021.19 1020.61 1020.05 1019.51 1019.03 1018.60 1018.26 1017.76 1017.33 1016.94 1016.70 1016.50 1016.54 1016.52 1016.43 1016.17 1015.66 1015.32 1015.10 1014.40 1013.55 1012.78 1012.38 1012.50 1012.18 1012.41 1012.93 1013.44 1013.41 1013.28 1013.53 1013.62 1013.74 1013.37 1013.13 1012.93
1027.15 1026.67 1026.15 1025.60 1025.06 1024.49 1023.96 1023.46 1022.87 1022.27 1021.71 1021.12 1020.47 1019.90 1019.41 1018.94 1018.42 1018.06 1017.62 1017.17 1016.79 1016.52 1016.32 1016.55 1016.58 1016.54 1016.65 1015.83 1015.41 1015.37 1014.92 1014.49 1013.24 1012.40 1012.03 1012.03 1012.50 1013.53 1014.11 1014.80 1015.16 1015.49 1015.65 1015.17 1014.95 1014.60 1014.46
1027.46 1026.94 1026.39 1025.82 1025.24 1024.63 1024.03 1023.48 1022.91 1022.29 1021.68 1021.05 1020.44 1019.94 1019.46 1019.09 1018.64 1018.17 1017.56 1017.16 1016.67 1016.60 1016.18 1016.25 1016.61 1017.16 1016.80 1016.58 1016.20 1015.86 1014.89 1014.32 1014.20 1013.77 1013.47 1013.54 1014.36 1015.43 1016.33 1016.77 1017.22 1017.22 1016.90 1016.47 1016.38 1016.01 1015.29
1027.75 1027.19 1026.61 1026.00 1025.37 1024.73 1024.08 1023.51 1022.99 1022.41 1021.73 1021.08 1020.49 1019.92 1019.40 1019.02 1018.65 1018.31 1017.66 1017.34 1017.89 1017.73 1017.37 1017.47 1017.73 1017.58 1017.25 1016.68 1016.24 1016.30 1015.65 1014.91 1015.06 1015.55 1016.56 1016.24 1017.10 1018.04 1018.03 1017.72 1017.77 1017.90 1017.84 1017.55 1017.16 1017.02 1016.64
1028.11 1027.53 1026.93 1026.30 1025.64 1024.97 1024.26 1023.61 1023.02 1022.40 1021.76 1021.14 1020.62 1020.08 1019.55 1019.00 1018.47 1018.19 1018.24 1018.82 1019.39 1019.35 1018.68 1017.86 1017.56 1017.27 1016.98 1016.79 1016.99 1016.93 1016.46 1016.47 1016.97 1017.77 1017.87 1018.03 1018.99 1019.20 1018.60 1019.13 1019.09 1018.93 1018.83 1018.90 1017.94 1017.64 1017.58
1028.40 1027.81 1027.22 1026.59 1025.91 1025.21 1024.51 1023.80 1023.09 1022.42 1021.80 1021.20 1020.74 1020.17 1019.56 1019.05 1018.66 1018.57 1019.05 1019.68 1019.42 1018.84 1018.89 1018.18 1017.64 1017.32 1017.18 1016.99 1017.69 1017.84 1017.49 1017.70 1018.36 1018.99 1019.25 1019.89 1021.06 1020.00 1019.78 1020.58 1020.73 1020.80 1020.65 1020.42 1019.82 1018.52 1017.94
1028.74 1028.14 1027.55 1026.91 1026.21 1025.49 1024.76 1023.99 1023.24 1022.52 1021.90 1021.28 1020.75 1020.17 1019.52 1018.84 1019.07 1019.42 1019.73 1019.71 1019.26 1019.14 1019.40 1018.93 1018.04 1017.55 1017.48 1017.23 1018.34 1018.78 1018.53 1019.11 1019.70 1020.47 1020.67 1021.29 1021.65 1021.08 1021.22 1022.14 1022.70 1021.98 1021.24 1021.05 1020.29 1019.87 1019.58
1029.10 1028.46 1027.82 1027.14 1026.38 1025.63 1024.86 1024.10 1023.35 1022.64 1022.03 1021.41 1020.88 1020.22 1019.69 1018.92 1019.75 1020.11 1020.22 1019.67 1019.33 1019.55 1020.13 1019.53 1018.68 1017.94 1018.48 1019.22 1020.40 1019.92 1019.78 1020.06 1021.20 1021.85 1022.36 1023.47 1022.73 1022.16 1022.77 1023.68 1023.82 1022.97 1022.12 1021.26 1020.62 1020.24 1020.30
1029.42 1028.75 1028.07 1027.34 1026.55 1025.76 1025.00 1024.22 1023.48 1022.77 1022.05 1021.42 1020.98 1020.41 1020.02 1019.85 1020.29 1020.12 1019.89 1019.60 1019.73 1020.45 1021.33 1020.61 1019.73 1019.83 1020.05 1020.59 1021.09 1021.16 1022.03 1021.29 1022.21 1022.73 1023.44 1024.21 1023.81 1024.43 1024.95 1024.53 1024.36 1023.62 1021.76 1020.72 1019.92 1019.98 1020.60
1029.72 1029.08 1028.37 1027.59 1026.74 1025.91 1025.13 1024.35 1023.59 1022.84 1022.12 1021.47 1021.06 1020.70 1020.37 1020.36 1020.46 1019.73 1019.83 1020.20 1021.23 1022.27 1022.57 1022.32 1021.63 1021.39 1021.74 1022.40 1022.39 1022.59 1023.44 1023.78 1024.87 1024.82 1025.03 1025.03 1024.74 1025.28 1025.08 1024.85 1023.98 1023.67 1022.07 1021.05 1019.90 1020.13 1020.89
1030.05 1029.40 1028.68 1027.86 1026.96 1026.06 1025.23 1024.37 1023.54 1022.82 1022.04 1021.32 1020.87 1020.55 1020.23 1019.96 1019.61 1019.67 1020.30 1021.32 1023.20 1024.35 1024.05 1023.41 1023.01 1022.65 1023.46 1023.96 1023.97 1024.22 1024.90 1025.82 1026.59 1027.16 1027.00 1026.66 1025.10 1025.88 1025.92 1025.94 1025.18 1024.17 1023.35 1022.24 1021.10 1020.48 1021.63
1030.40 1029.77 1029.04 1028.21 1027.27 1026.30 1025.36 1024.43 1023.49 1022.55 1021.85 1021.10 1020.54 1020.70 1020.53 1019.92 1019.41 1019.68 1020.84 1023.69 1025.49 1025.28 1025.07 1024.53 1023.92 1024.19 1024.94 1025.38 1025.52 1025.65 1026.65 1027.54 1028.18 1028.51 1029.12 1028.35 1027.41 1026.95 1026.73 1026.09 1026.01 1024.57 1023.54 1022.67 1022.26 1021.71 1022.85
1030.74 1030.09 1029.37 1028.51 1027.55 1026.57 1025.57 1024.59 1023.60 1022.50 1021.60 1020.79 1021.01 1021.13 1020.67 1019.68 1019.37 1020.14 1022.33 1025.09 1025.80 1025.63 1025.25 1025.12 1025.48 1025.84 1026.29 1026.61 1026.70 1026.87 1027.80 1028.80 1028.93 1029.36 1029.39 1029.70 1028.73 1027.80 1026.85 1026.10 1026.17 1024.95 1024.31 1022.96 1022.60 1022.81 1024.61
1031.10 1030.44 1029.71 1028.86 1027.92 1026.90 1025.82 1024.73 1023.71 1022.58 1021.56 1020.93 1021.25 1021.95 1020.80 1020.04 1019.99 1021.90 1025.14 1025.87 1025.96 1025.85 1025.65 1025.81 1026.32 1026.68 1027.26 1027.56 1027.51 1027.90 1028.88 1029.27 1029.36 1029.51 1029.44 1029.68 1029.83 1029.02 1027.73 1027.59 1027.22 1025.59 1025.14 1024.99 1024.99 1025.37 1026.07
1031.43 1030.77 1030.02 1029.19 1028.29 1027.33 1026.27 1025.10 1023.99 1023.00 1021.67 1021.00 1022.19 1022.89 1021.32 1020.77 1022.71 1024.92 1026.24 1026.02 1026.01 1026.19 1026.13 1026.42 1026.72 1027.35 1027.92 1028.10 1028.32 1028.61 1029.28 1029.29 1029.38 1029.27 1029.65 1029.81 1029.93 1029.67 1029.29 1028.72 1028.41 1028.34 1027.62 1026.74 1026.82 1028.22 1028.63
1031.78 1031.11 1030.37 1029.58 1028.70 1027.75 1026.69 1025.54 1024.33 1023.38 1022.87 1023.09 1024.10 1024.03 1022.24 1022.00 1025.43 1026.82 1026.73 1026.78 1026.76 1026.74 1026.83 1027.08 1027.57 1028.05 1028.45 1028.77 1029.17 1029.28 1029.44 1029.63 1029.40 1029.54 1029.83 1029.99 1030.34 1030.26 1029.36 1029.47 1029.31 1029.37 1029.41 1028.88 1029.13 1030.37 1031.73
1032.14 1031.51 1030.82 1030.06 1029.21 1028.23 1027.19 1026.05 1024.84 1023.51 1022.68 1022.88 1024.62 1025.83 1025.47 1025.53 1026.65 1027.14 1027.41 1027.59 1027.44 1027.24 1027.63 1027.81 1028.67 1028.77 1029.12 1029.43 1029.68 1029.90 1029.91 1029.73 1029.54 1029.56 1029.45 1029.76 1030.83 1031.35 1031.53 1031.61 1031.66 1031.49 1031.10 1031.07 1031.36 1032.87 1034.02
1032.51 1031.93 1031.29 1030.56 1029.69 1028.78 1027.80 1026.63 1025.32 1023.99 1022.62 1022.92 1025.61 1027.16 1027.17 1028.40 1028.21 1028.01 1027.85 1028.22 1028.23 1028.19 1028.21 1028.56 1029.19 1029.82 1030.20 1030.32 1030.36 1030.55 1030.44 1030.19 1029.77 1029.50 1029.68 1030.33 1031.06 1031.41 1031.67 1031.96 1031.87 1032.12 1032.38 1032.70 1033.20 1034.35 1035.27
1032.85 1032.32 1031.70 1031.05 1030.28 1029.47 1028.58 1027.54 1026.27 1024.72 1023.35 1024.60 1026.72 1027.55 1027.92 1028.66 1028.43 1028.56 1028.80 1028.96 1028.92 1028.86 1028.92 1029.44 1029.96 1030.23 1030.47 1030.80 1031.13 1031.26 1031.11 1030.78 1030.40 1030.03 1030.30 1030.45 1030.87 1031.25 1031.55 1032.01 1032.15 1032.49 1032.82 1033.32 1033.84 1035.11 1035.23
1033.15 1032.69 1032.15 1031.57 1030.89 1030.16 1029.41 1028.52 1027.44 1026.03 1024.83 1026.71 1027.68 1027.80 1028.21 1029.62 1029.46 1029.42 1029.49 1029.20 1029.30 1029.25 1029.60 1029.68 1030.19 1030.43 1030.53 1030.67 1030.76 1030.65 1030.62 1030.54 1030.39 1030.68 1030.70 1030.54 1030.98 1031.27 1031.50 1032.12 1032.22 1032.74 1033.27 1033.54 1033.85 1034.27 1034.97
1033.41 1033.03 1032.56 1032.03 1031.48 1030.85 1030.21 1029.48 1028.71 1027.94 1027.39 1028.06 1028.89 1028.96 1029.39 1030.65 1030.14 1029.83 1029.61 1029.51 1029.62 1029.49 1029.72 1030.09 1030.33 1030.57 1030.47 1030.23 1030.08 1029.74 1029.90 1029.89 1030.11 1030.03 1030.35 1030.43 1030.86 1031.35 1031.77 1032.30 1032.66 1032.53 1032.56 1032.72 1033.32 1033.53 1033.46
1033.56 1033.30 1032.92 1032.45 1031.99 1031.44 1030.89 1030.32 1029.70 1029.09 1028.61 1028.97 1029.21 1029.38 1030.07 1031.22 1030.86 1030.19 1029.95 1029.96 1029.98 1030.21 1030.29 1030.39 1030.67 1030.65 1030.54 1030.67 1031.11 1031.01 1030.75 1030.54 1030.07 1029.88 1030.07 1030.27 1030.93 1031.76 1032.49 1032.61 1032.54 1032.11 1031.95 1032.08 1032.24 1032.91 1032.24
1033.63 1033.47 1033.18 1032.81 1032.42 1031.93 1031.45 1030.94 1030.47 1029.94 1029.33 1029.47 1029.71 1029.77 1030.26 1030.97 1031.54 1030.81 1030.60 1030.67 1030.97 1031.25 1031.20 1031.09 1030.90 1030.90 1031.00 1031.93 1032.58 1032.89 1032.39 1031.46 1030.88 1030.48 1030.20 1030.54 1031.21 1032.22 1032.79 1033.20 1032.87 1031.81 1031.23 1030.82 1031.27 1031.87 1031.42
1033.61 1033.55 1033.34 1033.05 1032.71 1032.33 1031.89 1031.46 1031.04 1030.60 1030.20 1030.10 1030.46 1030.17 1030.48 1031.51 1031.40 1030.84 1030.88 1031.05 1031.19 1031.72 1032.27 1032.15 1032.10 1031.96 1032.19 1033.40 1034.43 1034.52 1033.56 1032.41 1032.06 1031.49 1031.10 1031.26 1031.91 1032.66 1033.09 1033.23 1032.51 1031.14 1030.74 1030.55 1031.18 1031.62 1030.68
1033.52 1033.53 1033.40 1033.20 1032.92 1032.61 1032.26 1031.90 1031.54 1031.15 1030.73 1030.57 1030.97 1030.53 1030.67 1031.79 1031.68 1031.00 1030.73 1030.94 1031.29 1031.86 1032.62 1032.67 1033.06 1033.24 1033.98 1034.95 1035.78 1035.83 1035.02 1034.07 1033.30 1032.46 1031.94 1031.88 1032.66 1033.05 1033.02 1032.69 1031.83 1030.55 1030.36 1030.50 1030.61 1030.06 1029.84
1033.36 1033.43 1033.39 1033.29 1033.07 1032.82 1032.54 1032.25 1031.96 1031.60 1031.15 1030.79 1031.37 1030.93 1030.92 1031.56 1031.94 1031.31 1030.82 1030.53 1030.74 1031.29 1032.29 1032.86 1033.49 1033.91 1034.62 1035.65 1036.47 1036.80 1036.58 1035.38 1034.45 1033.57 1032.34 1032.39 1032.60 1032.76 1032.63 1031.68 1030.44 1029.87 1029.70 1029.49 1029.28 1029.42 1029.25
Wind_Speed
20 21 21 21 21 21 21 20 19 18 18 18 18 18 17 16 15 13 11 10 10 9 9 10 10 11 4 7 2 9 12 11 10 9 5 5 5 4 4 5 8 3 4 8 6 7 7
20 20 21 21 21 21 21 21 20 19 18 18 17 17 17 16 15 15 14 13 12 11 8 7 8 6 4 7 5 9 10 12 10 5 7 3 3 4 4 4 0 5 7 10 8 10 6
21 21 22 22 21 21 21 21 20 19 18 17 17 16 16 15 15 14 13 11 11 12 13 10 9 4 6 2 6 8 9 8 4 2 4 4 4 4 4 8 2 7 7 7 5 8 5
21 22 22 22 22 22 22 21 20 19 18 18 18 16 15 15 14 13 13 12 11 11 11 9 9 2 2 2 5 9 7 15 12 6 5 7 4 0 3 4 8 6 5 5 6 9 5
22 22 23 23 23 23 22 22 21 20 19 19 18 18 17 15 15 12 13 12 10 11 11 5 5 2 4 9 11 8 5 11 10 11 4 4 2 1 7 4 5 7 4 7 7 5 4
22 23 23 23 23 23 23 22 22 22 20 19 18 17 17 15 14 14 15 6 9 9 4 2 2 5 7 8 5 8 10 8 5 12 11 10 7 6 6 8 4 7 7 5 4 8 6
22 23 24 24 24 24 24 23 22 21 20 19 19 19 18 16 13 11 7 5 8 9 10 6 3 4 6 9 4 11 8 11 10 9 7 8 11 7 8 6 3 4 5 6 6 8 8
22 23 23 24 24 25 25 24 23 21 21 20 19 18 17 17 16 11 4 6 2 4 3 2 3 2 4 2 8 17 7 9 8 8 8 9 14 16 10 20 12 7 5 6 8 12 7
22 23 23 24 24 25 25 24 24 22 21 20 19 19 18 17 12 5 7 4 5 3 3 1 1 4 7 3 5 17 7 6 7 11 10 4 10 18 17 22 22 10 15 18 14 15 5
22 22 23 24 25 25 25 25 24 22 21 19 19 18 18 20 7 2 4 9 8 2 6 6 6 6 13 3 7 11 10 6 10 7 7 6 14 16 11 20 20 15 18 20 17 9 4
22 22 23 24 25 25 25 25 25 23 21 19 17 17 17 9 2 4 5 7 6 4 6 5 4 3 7 13 6 13 14 7 9 7 8 7 15 17 17 19 19 16 21 19 16 12 4
22 23 24 25 25 24 25 24 23 23 21 18 15 15 16 6 4 3 5 5 4 8 3 6 3 9 10 7 7 8 14 9 5 4 13 6 5 7 12 20 20 21 19 18 10 5 4
22 23 24 25 25 25 25 24 23 22 20 17 13 11 5 1 4 4 3 4 7 9 7 8 6 6 6 8 7 9 12 24 13 9 13 4 3 9 14 18 15 25 15 5 4 4 3
22 24 24 25 26 25 25 25 24 22 20 17 13 7 5 3 4 1 4 8 12 4 4 5 5 5 6 10 5 12 8 5 13 4 5 7 16 17 15 18 15 17 11 3 5 4 6
22 24 24 25 26 26 26 26 26 25 21 17 8 3 4 5 5 3 7 10 5 3 5 7 7 6 7 7 6 8 8 10 10 13 5 7 8 13 13 18 10 15 12 16 7 8 2
22 23 24 24 25 26 27 27 26 26 24 11 3 3 6 13 4 6 8 6 3 3 4 3 5 6 6 8 7 6 7 8 3 6 3 5 8 9 21 9 11 13 12 6 3 3 7
22 23 24 25 26 27 28 28 28 27 26 2 4 5 6 10 6 9 6 4 6 7 7 5 3 3 4 5 4 4 7 6 6 7 5 2 2 13 12 6 16 13 10 6 0 5 4
21 22 23 24 26 27 28 29 28 27 26 8 4 5 7 5 8 3 3 3 4 5 7 6 3 6 2 4 5 4 2 3 4 5 6 3 1 8 4 9 9 13 11 9 3 7 5
20 22 23 24 25 27 28 29 30 27 17 2 4 1 6 6 6 3 3 5 4 4 4 4 6 6 4 4 2 3 4 2 5 8 5 5 4 6 7 2 8 9 15 11 5 4 9
19 21 23 24 25 26 28 29 30 31 23 4 5 4 6 7 2 7 5 5 3 3 5 5 5 5 6 4 3 1 3 3 3 3 12 3 0 4 4 1 5 6 15 16 6 4 2
18 20 21 22 24 26 28 30 31 32 26 5 5 1 4 3 6 6 5 4 5 5 4 7 4 6 4 3 5 2 2 5 4 5 5 3 1 2 6 10 5 1 8 11 10 3 5
17 18 19 21 22 24 27 29 31 33 18 7 4 4 5 2 2 7 6 4 3 3 3 2 3 4 3 2 4 5 2 2 6 4 4 4 3 4 8 3 4 7 8 9 7 3 3
15 17 18 20 21 24 25 27 29 31 14 5 3 3 5 6 3 5 1 2 2 2 5 5 3 2 4 4 5 9 8 7 9 3 4 2 2 4 2 6 3 5 2 2 5 1 4
13 15 17 18 20 22 23 24 26 27 15 3 2 1 5 2 3 2 3 3 3 4 2 4 5 2 5 5 6 5 7 10 7 8 6 1 3 1 4 4 3 5 3 8 8 6 4
10 13 15 16 17 19 20 21 22 23 18 5 2 3 3 3 1 5 5 3 4 5 2 3 2 3 4 5 4 5 4 4 4 4 2 2 2 3 2 2 3 1 3 5 6 4 4
7 10 12 13 15 16 18 18 19 21 21 4 4 1 4 6 3 4 3 3 1 2 5 2 3 4 5 3 3 2 2 2 3 6 2 4 4 4 3 1 3 6 3 1 5 1 4
5 6 8 11 12 14 15 16 17 18 20 5 3 3 4 5 4 2 2 2 2 2 2 2 6 6 4 3 3 1 2 3 3 4 5 4 3 1 2 2 7 5 2 2 3 7 6
4 4 5 8 10 11 13 14 15 16 18 5 2 4 4 3 4 3 2 2 3 2 4 4 5 5 4 5 3 3 1 2 3 3 5 2 3 3 3 4 5 2 2 6 8 4 6
4 4 4 5 7 9 10 12 13 14 16 8 3 4 2 5 5 1 2 4 4 6 6 3 5 2 4 4 2 2 2 3 2 3 5 3 2 4 6 6 4 5 4 6 4 4 4
Wind_Direction
27 24 21 18 16 13 12 9 5 4 2 359 359 357 354 353 349 346 344 338 342 348 349 353 348 334 24 37 300 280 329 334 336 338 3 351 0 9 343 291 318 224 304 315 302 340 344
27 24 21 17 15 12 11 8 4 3 1 358 355 354 350 348 345 344 346 346 345 340 350 356 339 303 70 51 273 324 341 340 332 330 317 329 297 267 255 297 16 298 311 307 354 6 32
25 21 19 16 13 12 11 9 5 2 359 355 351 348 348 346 341 340 342 341 332 325 325 346 3 4 63 59 315 325 322 298 272 247 268 253 252 75 335 319 291 281 305 342 28 359 20
23 20 17 15 12 10 9 8 4 1 357 352 347 346 345 346 342 339 331 329 318 316 317 338 340 40 130 279 345 353 305 336 327 271 200 256 196 185 184 267 334 343 36 25 325 25 356
22 19 16 14 11 9 8 7 3 358 355 350 345 345 346 343 338 338 326 317 308 322 306 297 37 100 353 321 2 320 359 329 310 334 307 237 90 101 21 13 5 7 300 321 335 30 340
21 18 15 12 10 8 6 5 2 357 352 347 343 343 345 344 338 338 323 289 299 340 20 92 11 31 353 311 330 322 336 3 353 2 10 13 40 44 18 36 315 292 306 284 301 340 352
20 17 13 10 8 7 4 4 1 355 348 343 341 341 341 343 340 340 5 11 18 355 35 121 184 144 267 289 24 352 328 356 13 42 16 348 60 19 327 294 305 346 344 323 353 6 342
19 15 12 9 7 5 2 1 358 353 347 340 339 337 340 341 338 347 67 77 82 224 359 102 93 335 308 295 22 354 1 34 21 19 10 16 39 346 322 24 4 11 12 341 308 343 329
18 14 10 7 5 3 1 359 357 353 347 341 342 340 340 337 326 39 81 43 309 42 120 313 217 348 304 73 42 357 23 11 35 18 358 67 17 9 42 23 4 339 17 346 318 329 265
15 12 9 5 3 1 0 358 356 352 349 345 345 342 339 330 61 308 54 320 344 50 78 358 354 0 348 55 35 29 4 34 15 19 357 45 354 7 20 20 1 327 356 333 319 337 290
13 11 7 4 0 359 358 357 356 354 352 347 345 341 344 21 168 49 292 319 337 57 59 329 2 347 353 87 319 8 1 39 34 37 49 316 359 13 7 342 348 299 308 294 284 275 264
11 9 7 3 359 357 358 356 354 352 349 346 347 340 345 16 37 235 307 332 52 47 55 349 22 8 33 34 24 5 35 26 66 6 46 299 33 33 9 344 322 308 294 290 249 225 203
10 8 6 2 358 356 357 356 354 350 345 340 335 331 346 17 284 302 342 47 44 83 339 347 328 355 67 348 8 14 41 44 44 7 352 5 27 18 355 346 335 332 306 303 205 180 221
9 7 5 2 358 355 355 355 353 350 345 336 329 323 300 220 283 18 53 57 69 18 344 345 318 359 77 13 2 7 23 41 35 41 298 337 333 8 332 346 324 318 322 273 284 227 130
9 7 4 1 358 356 356 355 353 349 346 333 329 351 333 290 292 89 72 55 176 352 326 330 319 42 17 1 350 7 68 20 37 32 20 338 312 336 340 324 341 319 334 287 263 239 102
9 6 3 -0 358 357 355 355 354 350 347 337 77 32 340 334 22 63 70 107 101 31 340 10 39 20 10 342 5 16 33 21 56 49 1 314 301 330 328 331 343 326 332 343 331 296 101
8 6 3 1 359 358 356 355 356 352 348 339 59 53 276 340 51 50 90 90 113 44 41 39 57 16 27 344 311 33 354 61 49 355 27 283 210 330 350 12 4 352 352 346 128 5 37
8 5 4 2 0 359 358 357 356 357 347 43 77 44 299 18 55 38 68 71 59 29 21 31 81 66 13 332 324 99 72 85 315 24 2 284 247 322 308 53 8 19 1 347 13 4 58
8 6 5 3 1 360 0 358 356 356 6 28 80 297 319 64 90 357 67 62 68 41 23 32 28 74 7 345 68 52 34 171 55 30 3 321 323 333 348 263 27 25 14 10 28 66 4
7 6 6 5 3 2 1 359 357 353 354 105 80 37 339 33 54 104 108 62 87 21 41 56 57 53 356 359 11 42 19 347 351 359 1 42 339 177 188 334 37 17 21 24 64 55 201
6 6 6 4 5 4 3 1 359 356 349 91 43 271 187 344 348 69 65 61 57 14 40 38 58 37 340 321 327 21 345 330 317 320 337 80 344 138 108 98 50 143 44 40 48 249 95
6 6 6 6 7 7 6 5 2 360 357 77 92 77 19 69 43 57 21 22 76 350 49 58 78 328 54 149 203 285 329 262 247 329 322 338 292 172 202 192 325 72 84 64 49 11 352
6 7 7 9 9 10 9 9 7 6 20 71 339 0 96 328 37 70 339 51 100 86 71 101 130 39 322 255 242 236 222 230 251 280 277 19 12 324 340 286 123 27 275 122 66 105 164
3 6 7 9 10 11 11 11 12 14 29 91 358 81 74 340 82 124 86 67 19 186 192 135 86 79 260 297 287 277 245 245 264 278 236 76 339 297 294 135 60 237 153 148 110 45 329
358 2 6 9 9 10 11 11 12 14 21 69 343 72 86 84 288 29 54 44 33 10 338 111 18 254 316 1 3 356 348 17 283 165 91 129 106 310 79 311 159 58 166 188 179 251 312
348 356 3 6 9 9 10 10 12 15 11 63 26 79 87 114 305 299 97 34 92 346 0 63 334 343 46 56 39 78 292 296 332 341 55 39 69 111 347 324 234 240 220 335 141 301 327
330 347 356 3 6 8 8 8 9 11 15 40 356 27 78 104 283 64 125 169 91 98 160 328 331 358 37 37 48 107 284 331 326 317 330 325 349 132 303 224 291 248 270 69 80 241 277
299 328 345 358 2 4 6 5 7 9 10 43 282 4 108 110 290 23 55 98 33 87 138 264 40 358 34 51 80 295 327 323 331 309 296 292 66 313 322 26 317 17 198 140 218 262 248
257 284 320 348 354 358 3 5 6 8 8 27 22 335 64 95 202 301 278 156 151 185 140 20 168 158 185 82 12 51 326 338 358 283 1 349 190 212 167 225 242 199 208 227 189 220 274